Date,TemperatureHighF,TemperatureAvgF,TemperatureLowF,DewpointHighF,DewpointAvgF,DewpointLowF,HumidityHigh,HumidityAvg,HumidityLow,PressureMaxIn,PressureMinIn,WindSpeedMaxMPH,WindSpeedAvgMPH,GustSpeedMaxMPH,PrecipitationSumIn
2013-2-1,83,64,50,54,50,43,99,65,25,30.01,29.94,9,1,12,0.00
2013-2-2,77,62,50,57,51,44,99,70,31,30.02,29.95,5,1,8,0.00
2013-2-3,78,61,48,56,52,46,99,75,37,29.98,29.85,5,1,8,0.00
2013-2-4,71,56,43,57,51,43,99,83,55,29.93,29.82,4,1,8,0.00
2013-2-5,60,55,46,55,53,45,99,92,80,29.93,29.83,4,1,10,0.00
2013-2-6,71,56,45,57,50,44,99,84,47,29.95,29.83,5,1,11,0.00
2013-2-7,67,53,41,53,48,41,99,84,55,29.98,29.81,5,1,11,0.01
2013-2-8,60,50,41,47,42,38,95,77,54,29.81,29.70,7,2,17,0.00
2013-2-9,66,50,35,43,37,32,99,68,31,29.88,29.77,4,2,13,0.00
2013-2-10,65,50,40,47,43,39,99,79,47,29.93,29.85,4,2,9,0.00
2013-2-11,71,52,38,45,37,17,99,66,13,30.07,29.90,8,2,16,0.00
2013-2-12,68,52,38,41,34,24,87,55,21,30.18,30.07,4,2,6,0.00
2013-2-13,68,52,36,52,41,33,97,70,32,30.10,29.98,5,1,9,0.00
2013-2-14,76,52,40,55,45,37,98,79,38,30.03,29.90,7,1,10,0.00
2013-2-15,86,68,45,40,29,19,75,29,11,30.03,29.94,8,3,26,0.00
2013-2-16,86,66,48,42,27,20,62,26,11,29.99,29.81,6,2,11,0.00
2013-2-17,71,56,40,55,44,31,99,68,28,29.86,29.76,5,1,13,0.00
2013-2-18,68,57,46,53,50,45,99,80,51,29.93,29.81,5,2,11,0.00
2013-2-19,63,54,49,51,48,43,99,82,52,29.85,29.65,6,2,17,0.00
2013-2-20,60,48,42,48,33,25,74,57,32,30.09,29.92,4,1,8,0.09
2013-2-21,68,52,39,46,37,31,77,58,33,30.09,30.01,6,2,13,0.00
2013-2-22,48,47,46,44,43,41,92,86,80,30.22,30.19,2,1,5,0.00
2013-2-23,69,60,38,54,45,35,92,61,44,30.20,29.94,5,2,13,0.00
2013-2-24,56,47,44,36,34,32,69,62,44,30.24,30.18,2,1,6,0.00
2013-2-25,72,55,38,33,25,17,71,37,14,30.26,29.63,5,2,13,0.00
2013-2-26,56,51,47,46,41,27,85,71,33,29.84,29.77,2,1,2,0.00
2013-2-27,84,64,50,31,22,15,46,22,11,30.01,29.84,10,3,14,0.00
2013-2-28,85,59,44,50,34,19,67,45,11,30.03,29.96,5,1,12,0.00